Location: McMath-Hulbert Observatory
(42.6964°N, 83.3187°W)
Time: 01:34:14
(UTC-05:00)

Daily predictions for brighter satellites

Satellite Brightness Start Highest point End
(mag) Time Altitude Azimuth Time Altitude Azimuth Time Altitude Azimuth
Atlas Centaur 2 4.1 04:16:09 31° SSE 04:16:09 31° SSE 04:22:13 10° ESE
Lacrosse 5 rocket 3.8 04:23:56 24° E 04:23:56 24° E 04:26:29 10° ENE
SL-16 R/B 2.9 04:29:36 50° E 04:29:36 50° E 04:34:38 10° NE
CZ-4B R/B 3.4 04:45:18 10° NNE 04:50:59 71° ESE 04:56:37 10° S
USA 229 DEB 3.9 04:49:12 51° NNW 04:51:13 76° NE 04:58:33 10° SE
USA 229 3.9 04:49:15 50° NNW 04:51:18 75° NE 04:58:39 10° SE
Cosmos 1503 Rocket 4.3 04:51:37 63° ENE 04:51:40 63° ENE 04:56:47 10° SSE
Cosmos 2369 Rocket 4.4 04:49:06 10° N 04:53:13 20° NE 04:57:19 10° E
Cosmos 2297 3.7 04:54:23 73° SSE 04:54:23 73° SSE 04:59:30 10° SSE
Cosmos 2016 Rocket 4.2 04:56:33 54° SSW 04:56:33 54° SSW 05:01:10 10° S
IRS-1C Rocket 4.2 04:56:29 10° NNE 05:01:46 74° ESE 05:07:00 10° S
Meteor 2-12 Rocket 4.4 04:56:27 12° N 05:02:07 81° E 05:08:10 10° S
Cosmos 1862 Rocket 4.3 05:12:48 44° S 05:12:48 44° S 05:15:52 10° S
PAYLOAD B 4.1 05:07:45 10° N 05:13:17 67° WNW 05:13:29 66° W
In-Cosmos 22 Rocket 4.5 05:17:00 50° NW 05:17:00 50° NW 05:21:44 10° N
Meteor 1-28 Rocket 4.0 05:15:08 10° SSE 05:17:46 44° SSE 05:17:46 44° SSE
Cosmos 1864 Rocket 4.4 05:17:34 10° NNW 05:23:48 65° W 05:29:56 10° S
Celestis-02/Orion 38 4.4 05:20:41 10° SSE 05:25:52 83° WSW 05:27:46 40° NNW
EO 1 Del DPAF 4.1 05:23:22 10° SSE 05:27:05 50° ENE 05:29:32 20° N
Landsat 4 3.7 05:25:39 10° SSE 05:28:55 68° S 05:28:55 68° S
Cosmos 1354 Rocket 3.9 05:28:31 54° WNW 05:29:22 62° WSW 05:34:30 10° S
Cosmos 1943 Rocket 4.1 05:27:11 10° N 05:31:51 26° NE 05:36:31 10° ESE
Okean 1-7 4.4 05:28:24 10° N 05:32:34 40° ENE 05:36:39 10° SSE
CZ-4B DEB 4.4 05:30:50 10° N 05:36:06 45° WNW 05:37:12 40° W
Hubble Space Telescope 3.3 05:35:54 10° SSW 05:37:06 11° S 05:38:19 10° SSE
USA 32 3.9 05:32:21 10° S 05:37:34 81° W 05:42:50 10° N
Cosmos 2237 Rocket 3.7 05:39:35 19° NNW 05:39:35 19° NNW 05:42:13 10° N
Cosmos 2233 Rocket 3.8 05:37:50 10° NNW 05:43:58 71° W 05:50:03 10° S
SKYMED 2 3.6 05:40:01 10° SSE 05:44:20 80° ENE 05:48:42 10° N
Cosmos 2333 Rocket 4.2 05:48:34 12° NNW 05:48:34 12° NNW 05:49:44 10° NNW
Gbstr 26 Del rocket 4.3 05:46:28 25° NNW 05:46:57 25° N 05:50:20 10° NE
ATLAS 5 CENTAUR R/B 3.5 05:43:35 10° S 05:47:37 32° ESE 05:51:58 10° NE
Abrixas rocket 3.5 05:49:50 28° N 05:49:50 28° N 05:52:40 10° ENE
DELTA 2 R/B (1) 4.0 05:48:34 31° WSW 05:50:58 53° SSW 05:56:22 10° ESE
Cosmos 1825 2.2 05:47:22 10° S 05:51:08 80° E 05:54:55 10° N
BREEZE-M DEB (TANK) 3.3 05:50:45 37° NW 05:51:52 54° N 05:55:33 10° E
Cosmos 2221 Rocket 3.9 05:54:08 10° N 05:58:36 71° E 06:03:05 10° SSE
Intercosmos 25 3.1 05:56:50 15° N 05:59:34 85° W 06:03:55 10° S
Meteor 2-3 Rocket 4.0 05:54:52 10° SSW 06:00:22 46° WNW 06:05:52 10° N
Okean-O 2.5 05:56:34 10° N 06:01:00 72° WNW 06:05:24 10° SSW
USA 267 4.5 05:55:52 10° ENE 06:01:23 30° NNE 06:06:11 13° NW
Lacrosse 5 rocket 1.8 05:59:41 30° W 06:01:36 50° NW 06:06:09 10° NE
Meteor 1-10 Rocket 4.3 05:56:42 10° N 06:02:40 89° E 06:08:37 10° S
Atlas Centaur 2 4.4 05:58:48 14° WSW 06:03:55 25° SSW 06:10:30 10° SE
Cosmos 1703 Rocket 3.6 06:06:23 10° NNW 06:10:39 53° W 06:14:52 10° S
Cosmos 1441 Rocket 3.5 06:08:30 10° N 06:12:17 68° ENE 06:16:00 10° SSE
Cosmos 1606 2.8 06:09:47 11° NNW 06:13:17 51° W 06:16:59 10° S
Cosmos 1992 Rocket 4.4 06:08:36 10° SW 06:13:27 38° WNW 06:18:19 10° N
SL-16 R/B 3.1 06:11:34 22° W 06:13:33 26° NW 06:18:17 10° N
Cosmos 1869 Rocket 3.5 06:12:00 10° SSW 06:16:20 65° W 06:20:43 10° N
Cosmos 1777 Rocket 4.4 06:12:54 10° NNW 06:18:07 65° ENE 06:23:16 10° SSE
Cosmos 1603 3.7 06:12:34 10° SW 06:18:08 62° WNW 06:23:48 10° NNE
NOSS 3-1 (C) 4.2 06:14:01 12° NW 06:21:05 63° WSW 06:29:25 10° SSE
Cosmos 1891 Rocket 4.5 06:17:33 10° N 06:23:38 88° E 06:29:44 10° S
NOAA 6 4.3 06:20:27 10° N 06:25:18 44° WNW 06:30:07 10° SW
Cosmos 1782 3.2 06:21:37 10° NNW 06:25:19 38° W 06:29:00 10° SSW
Cosmos 1900 4.5 06:23:53 10° SW 06:28:57 58° NW 06:34:04 10° NNE
CZ-2C R/B 2.4 06:25:19 10° N 06:30:31 76° WNW 06:35:35 10° SSW
ATLAS 2AS CENTAUR R/B 4.2 06:24:31 10° NNW 06:31:46 35° NE 06:38:36 10° ESE
COSMO-SKYMED 1 3.4 06:28:43 10° SSW 06:32:32 30° W 06:36:23 10° NW
Cosmos 1408 3.6 06:31:42 10° SW 06:34:51 25° WNW 06:38:01 10° NNW
Cosmos 2369 Rocket 2.2 06:32:13 10° NNW 06:37:47 69° WSW 06:43:19 10° SSE
Ariane Rocket 3.9 06:34:46 10° NNE 06:39:44 53° E 06:44:39 10° S
PAYLOAD A 4.4 06:37:29 10° N 06:42:25 44° WNW 06:47:28 10° SW
Cosmos 405 Rocket 3.2 06:39:49 10° NNW 06:43:15 37° W 06:46:43 10° SSW
Cosmos 2034 Rocket 4.0 06:37:35 10° N 06:43:51 77° W 06:50:01 10° S
SL-8 R/B 3.7 06:40:27 10° WSW 06:45:14 75° NNW 06:50:01 10° ENE
Cosmos 968 Rocket 4.3 06:40:38 10° NW 06:45:14 31° W 06:49:49 10° SSW
NOSS 3-1 (A) 4.3 06:38:02 10° NW 06:45:35 60° WSW 06:53:51 10° SSE
IDEFIX/ARIANE 42P 2.9 06:42:06 10° N 06:46:58 42° WNW 06:51:48 10° SW
PSLV R/B 3.4 06:44:04 10° WSW 06:47:12 64° S 06:50:22 10° E
Thor Agena Rocket 3.5 06:42:20 10° S 06:47:23 67° WSW 06:52:26 10° NNW
Cosmos 1674 Rocket 4.2 06:44:32 10° N 06:48:49 58° E 06:53:04 10° SSE
Cosmos 1862 3.9 06:55:34 10° SW 06:59:11 35° WNW 07:02:52 10° N
BREEZE-M DEB (TANK) 4.0 06:42:58 10° W 06:59:53 53° NNW 07:03:41 10° ENE
IRAS Rocket 4.3 06:54:24 10° NNE 06:59:56 87° WNW 07:05:25 10° SSW
Lacrosse 4 Rocket 2.1 06:56:15 10° SSW 07:00:35 63° ESE 07:04:50 10° NE
